シュヴァスマン-ヴァハマン第1彗星

29P/Schwassmann-Wachmann 1 (2019)

English version
Home page
Updated on May 15, 2012

---------------------------------------------------------------------

・ プロフィール

・ 写真集

・ 軌道要素

Epoch 2019 Mar. 18.0 TT = JDT 2458560.5
T 2019 Mar. 7.75542 TT                                  MPC
q   5.7668226            (2000.0)            P               Q
n   0.06662630     Peri.   47.77430     +0.99270158     -0.00956901
a   6.0261361      Node   312.39468     -0.05135176     +0.86841745
e   0.0430315      Incl.    9.36834     +0.10911724     +0.49574144
P  14.8
From 16450 observations 1902 Mar. 5-2012 Apr. 28, mean residual 0".6.

・ 星図

・ 光度変化

        m1 = 4.0 + 5 logΔ + 7.5 log r

---------------------------------------------------------------------

軌道要素はM.P.E.C. 2012-H90に掲載されたものです。
星図はステラナビゲータ Ver.8 (アストロアーツ) で作成したものです。
光度グラフはComet for Windowsで作成したものです。

---------------------------------------------------------------------

Copyright(C) Seiichi Yoshida (comet@aerith.net). All rights reserved.